Ocean City, MD

2:24 AM EDT on April 27, 2017 (GMT -0400)
Ocean City Municipal

Weather History for KOXB - January, 2014

Change the Weather History Date:

Thursday, January 16, 2014

  Actual Average (KSBY) Record (KSBY)
Temperature  
Mean Temperature 34 °F -  
Max Temperature 43 °F 42 °F 69 °F (1953)
Min Temperature 25 °F 23 °F 2 °F (1982)
Degree Days  
Heating Degree Days 31    
Moisture  
Dew Point 31 °F    
Average Humidity 78    
Maximum Humidity 97    
Minimum Humidity 62    
Precipitation  
Precipitation 0.00 in - - ()
Sea Level Pressure  
Sea Level Pressure 29.93 in    
Wind  
Wind Speed 9 mph (NNW)    
Max Wind Speed 15 mph    
Max Gust Speed 28 mph    
Visibility 8 miles    
Events      
Averages and records for this station are not official NWS values.
T = Trace of Precipitation, MM = Missing Value Source: NWS Daily Summary

Daily Weather History Graph

Daily Weather History Graph

Search for Another Location

Airport or City:

Trip Planner

Search our weather history database for the weather conditions in past years. The results will help you decide how hot, cold, wet, or windy it might be!

Date:

Astronomy

Jan. 16, 2014 Rise Set
Actual Time 7:15 AM EST 5:05 PM EST
Civil Twilight 6:46 AM EST 5:34 PM EST
Nautical Twilight 6:14 AM EST 6:06 PM EST
Astronomical Twilight 5:42 AM EST 6:38 PM EST
Moon 5:53 PM EST (1/16) 7:08 AM EST (1/16)
Length of Visible Light 10h 47m
Length of Day
9h 49m
Full, 100% of the Moon is Illuminated
Jan 16
Full
Jan 24
Last Quarter
Jan 30
New
Feb 6
First Quarter
Feb 14
Full

Hourly Weather History & Observations

Time (EST) Temp. Windchill Dew Point Humidity Pressure Visibility Wind Dir Wind Speed Gust Speed Precip Events Conditions
12:07 AM 43.0 °F 37.7 °F 42.1 °F 97% 29.88 in 1.0 mi NNW 9.2 mph - N/A   Overcast
12:16 AM 43.0 °F 37.2 °F 42.1 °F 97% 29.88 in 0.8 mi North 10.4 mph - N/A   Overcast
12:38 AM 43.0 °F 37.7 °F 41.0 °F 93% 29.89 in 1.5 mi NNW 9.2 mph 18.4 mph N/A   Overcast
12:50 AM 42.8 °F 37.0 °F 41.0 °F 93% 29.88 in 2.0 mi North 10.4 mph - N/A   Overcast
12:53 AM 42.1 °F 35.7 °F 41.0 °F 96% 29.88 in 2.0 mi NNW 11.5 mph - N/A   Overcast
1:09 AM 41.0 °F 34.3 °F 39.9 °F 96% 29.90 in 2.5 mi NNW 11.5 mph 19.6 mph N/A   Overcast
1:16 AM 41.0 °F 34.3 °F 39.0 °F 93% 29.89 in 3.0 mi North 11.5 mph - N/A   Overcast
1:53 AM 41.0 °F 34.3 °F 37.0 °F 86% 29.91 in 5.0 mi NNW 11.5 mph 21.9 mph N/A   Overcast
2:10 AM 39.9 °F 32.1 °F 37.0 °F 89% 29.92 in 6.0 mi North 13.8 mph 27.6 mph N/A   Overcast
2:53 AM 39.9 °F 31.8 °F 33.1 °F 77% 29.90 in 10.0 mi North 15.0 mph 21.9 mph N/A   Overcast
3:53 AM 39.9 °F 32.1 °F 33.1 °F 77% 29.90 in 8.0 mi North 13.8 mph 21.9 mph N/A   Overcast
4:53 AM 37.9 °F 30.9 °F 30.9 °F 76% 29.90 in 10.0 mi North 10.4 mph 21.9 mph N/A   Overcast
5:53 AM 37.9 °F 30.9 °F 28.9 °F 70% 29.90 in 10.0 mi NNW 10.4 mph - N/A   Overcast
6:53 AM 37.0 °F 29.3 °F 28.0 °F 70% 29.91 in 10.0 mi North 11.5 mph - N/A   Overcast
7:03 AM 37.0 °F 30.4 °F 27.0 °F 67% 29.90 in 10.0 mi North 9.2 mph - N/A   Overcast
7:53 AM 37.0 °F 30.4 °F 27.0 °F 67% 29.94 in 10.0 mi NNW 9.2 mph - N/A   Overcast
8:03 AM 37.0 °F 30.4 °F 28.0 °F 70% 29.93 in 10.0 mi NNW 9.2 mph - N/A   Overcast
8:53 AM 37.0 °F 29.3 °F 28.0 °F 70% 29.98 in 10.0 mi NNW 11.5 mph - N/A   Overcast
9:53 AM 37.0 °F 29.8 °F 27.0 °F 67% 29.98 in 10.0 mi NNW 10.4 mph - N/A   Overcast
10:53 AM 37.9 °F 30.9 °F 27.0 °F 65% 29.96 in 10.0 mi NNW 10.4 mph - N/A   Overcast
11:53 AM 39.0 °F 30.6 °F 28.0 °F 65% 29.91 in 10.0 mi NNW 15.0 mph 21.9 mph N/A   Overcast
12:53 PM 39.0 °F 31.8 °F 27.0 °F 62% 29.89 in 10.0 mi NNW 11.5 mph 17.3 mph N/A   Overcast
1:53 PM 37.9 °F 32.7 °F 28.0 °F 68% 29.89 in 10.0 mi NW 6.9 mph - N/A   Overcast
2:23 PM 37.9 °F 33.5 °F 28.0 °F 68% 29.90 in 10.0 mi NW 5.8 mph - N/A   Overcast
2:53 PM 37.9 °F 32.7 °F 28.0 °F 68% 29.90 in 10.0 mi NNW 6.9 mph - N/A   Overcast
3:08 PM 37.9 °F 32.1 °F 28.0 °F 68% 29.89 in 10.0 mi NW 8.1 mph - N/A   Overcast
3:31 PM 37.9 °F 31.5 °F 28.0 °F 68% 29.90 in 10.0 mi NNW 9.2 mph - N/A   Overcast
3:53 PM 37.9 °F 34.4 °F 28.0 °F 68% 29.91 in 10.0 mi NW 4.6 mph - N/A   Overcast
4:53 PM 37.9 °F - 28.9 °F 70% 29.93 in 10.0 mi Calm Calm - N/A   Overcast
5:53 PM 30.9 °F - 25.0 °F 79% 29.95 in 10.0 mi Calm Calm - N/A   Partly Cloudy
6:53 PM 28.0 °F - 25.0 °F 88% 29.97 in 10.0 mi Calm Calm - N/A   Clear
7:53 PM 30.9 °F 27.5 °F 27.0 °F 85% 29.99 in 10.0 mi WSW 3.5 mph - N/A   Clear
8:53 PM 27.0 °F - 24.1 °F 89% 30.00 in 10.0 mi Calm Calm - N/A   Clear
9:53 PM 25.0 °F - 21.9 °F 88% 30.01 in 10.0 mi North - - N/A   Clear
10:53 PM 30.0 °F 25.2 °F 24.1 °F 79% 30.02 in 10.0 mi West 4.6 mph - N/A   Clear
11:53 PM 28.9 °F 23.9 °F 24.1 °F 82% 30.01 in 10.0 mi West 4.6 mph - N/A   Clear